Other Surface Observations
Issued by NWS

Home | Current Version | Previous Version | Text Only | Print | Product List | Glossary On
Versions: 1 2 3 4 5 6 7 8 9 10 11 12 13 14 15 16 17 18 19 20 21 22 23 24 25 26 27 28 29 30 31 32 33 34 35 36 37 38 39 40 41 42 43 44 45 46 47 48 49 50
136
SXUS52 KTAE 250406
OSOTAE
OSOTAE
North Florida/South Alabama/Southwest Georgia Weather Roundup
National Weather Service Tallahassee Florida
1200 AM EDT SUN SEP 25 2016

Note: "fair" indicates few or no clouds below 12,000 feet with no
significant weather and/or obstructions to visibility.

!FLZ017-115-028-034-025-250500
...North Florida...

CITY           SKY/WX    TMP DP  RH WIND       PRES   REMARKS
TALLAHASSEE    PTCLDY    77  75  93 CALM      30.02S
APALACHICOLA   CLEAR     77  77 100 CALM      30.01S
PERRY          CLEAR     74  73  95 E5        30.02S
CROSS CITY     CLEAR     77  73  88 E3        30.01F
JACKSONVILLE   PTCLDY    73  73 100 CALM      30.02F
$$

!FLZ112-006-005-002-011-250500
...Florida Panhandle...

CITY           SKY/WX    TMP DP  RH WIND       PRES   REMARKS
MARIANNA       CLEAR     76  73  91 CALM      30.01S
BONIFAY        FAIR      75  71  87 CALM      30.02S
PANAMA CITY NW NOT AVBL
TYNDALL AFB    CLEAR     76  74  93 CALM      30.01S
TYND DRONE APT FAIR      76  76 100 CALM      30.01S
DE FUNIAK SPR  FAIR      76  67  73 N3        30.02F
EGLIN AFB      PTCLDY    79  68  69 NE5       30.00S
DESTIN         CLEAR     82  71  69 NE3       30.01R
HURLBURT       NOT AVBL
CRESTVIEW      PTCLDY    71  67  87 CALM      30.03R
PENSACOLA      CLEAR     79  71  76 CALM      30.00S
$$

!ALZ063-066-250500
...South Alabama...

CITY           SKY/WX    TMP DP  RH WIND       PRES   REMARKS
DOTHAN         CLEAR     77  70  79 S5        30.05S
OZARK CAIRNS   CLEAR     75  70  84 CALM      30.01S
FT RUCKER HELI CLEAR     75  69  81 CALM      30.01S
RUCKER HELI 3  NOT AVBL
RUCKER HELI 2  FAIR      77  70  79 CALM      30.01S
FLORALA APT    NOT AVBL
ANDALUSIA      CLEAR     75  69  81 CALM      30.01S
TROY           CLEAR     71  69  93 CALM      30.03S
EUFALA         FAIR      72  69  90 CALM      30.02R
MOBILE         CLEAR     74  71  91 CALM      30.02S
$$

!GAZ120>161-250500
...Southwest and South Central Georgia...

CITY           SKY/WX    TMP DP  RH WIND       PRES   REMARKS
THOMASVILLE    FAIR      73  73 100 CALM      30.04S
BAINBRIDGE     CLEAR     77  72  83 CALM      30.02F
MOODY AFB      CLEAR     77  71  82 SE7       30.02F
VALDOSTA       PTCLDY    76  74  93 S6        30.03S
MOULTRIE       CLEAR     75  72  88 CALM      30.04S
BLAKELY        CLEAR     75  68  78 CALM      30.03S
ALBANY         PTCLDY    75  68  78 CALM      30.04S
TIFTON         FAIR      76  71  86 SE5       30.04S
FITZGERALD     FAIR      77  74  91 CALM      30.06S
CORDELE        FAIR      75  71  86 CALM      30.04S
AMERICUS       FAIR      72  64  78 CALM      30.06R
HOMERVILLE     FAIR      77  73  88 CALM      30.04F
$$

!GMZ750-755-770-775-250500
...Coastal and Buoy Obs...

STATION/POSITION TIME  TEMP    WIND        PRES    VSBY  WAVE
                       AIR SEA DIR/SP/G                  HT/PER
                 (UTC) (F)     (DEG/KT/KT) (MB)    (MI)  (FT/S)
KEATON BEACH     0400   78      80/  9/ 14 1015.9F
CEDAR KEY        0300   82      70/ 12/ 15 1016.7F
C TOWER          0400   83     220/  6/  7 1016.7F
APALACHICOLA BUO 0250   84 85   20/  2/  2 1016.4          0
PANAMA CITY BUOY 0250   84 86              1017.0          1
MOBILE BUOY      0300   84 86  230/  4/  4 1016.3R
ORANGE BCH AL BU 0250   85 86  260/  6/  8 1016.2          1/ 4
$$




USA.gov is the U.S. government's official web portal to all federal, state and local government web resources and services.